Location: Unspecified
(40.9447°N, 78.9903°W)
Time: 13:14:53
(UTC-04:00)

Cosmos 1674 - Pass Details

Date: 29 July 2021
Orbit: 491 x 516 km, 82.5° (Epoch: 23 September)

Event Time Altitude Azimuth Distance (km) Brightness Sun altitude
Rises 03:30:18 0° 2° (N) 2,647 7.3 -23.4°
Reaches altitude 10° 03:32:39 10° 14° (NNE) 1,754 6.3 -23.2°
Maximum altitude 03:36:04 30° 76° (ENE) 949 4.4 -22.8°
Enters shadow 03:38:02 19° 124° (SE) 1,269 4.6 -22.6°
